weather.gov     
National Weather Service

Terminal Aerodrome Forecast
NWS Homepage
This page is being discontinued on March 12, 2014.
The same data is available at this site. Please update your bookmarks.
Thank you, and we apologize for the inconvenience.
Please send an email to SR-SRH.Webmaster@noaa.gov with any concerns.


Current Version
Previous Version:    01  02  03  04  05  06  07  08  09  10  11  12  13  14  15  16  17  18  19  20  21  22  23  
[Printable]
220
FTUS42 KGSP 192339
TAFGSP
TAF
KGSP 192339Z 2000/2024 07003KT P6SM SCT080 BKN180
     FM200800 05004KT P6SM VCSH SCT030 BKN060
     FM201100 04005KT P6SM -RA BKN024 OVC030
     FM201600 05004KT P6SM VCSH OVC024=


220
FTUS42 KGSP 192339
TAFGSP
TAF
KGSP 192339Z 2000/2024 07003KT P6SM SCT080 BKN180
     FM200800 05004KT P6SM VCSH SCT030 BKN060
     FM201100 04005KT P6SM -RA BKN024 OVC030
     FM201600 05004KT P6SM VCSH OVC024=




U.S. Dept. of Commerce
NOAA National Weather Service
1325 East West Highway
Silver Spring, MD 20910
E-mail: w-nws.webmaster@noaa.gov
Page last modified: May 16, 2007
NATIONAL WEATHER SERVICE: for Safety, for Work, for Fun - FOR LIFE